Year,Month,Day,Hour,Minute,Value (Times are PST for temperature in C)
2014,08,10,00,00,19.20
2014,08,10,00,01,19.20
2014,08,10,00,02,19.20
2014,08,10,00,03,19.20
2014,08,10,00,04,19.10
2014,08,10,00,05,19.10
2014,08,10,00,06,19.10
2014,08,10,00,07,19.00
2014,08,10,00,08,19.00
2014,08,10,00,09,19.00
2014,08,10,00,10,18.90
2014,08,10,00,11,18.90
2014,08,10,00,12,18.90
2014,08,10,00,13,18.80
2014,08,10,00,14,18.80
2014,08,10,00,15,18.80
2014,08,10,00,16,18.80
2014,08,10,00,17,18.70
2014,08,10,00,18,18.70
2014,08,10,00,19,18.70
2014,08,10,00,20,18.60
2014,08,10,00,21,18.60
2014,08,10,00,22,18.60
2014,08,10,00,23,18.60
2014,08,10,00,24,18.50
2014,08,10,00,25,18.50
2014,08,10,00,26,18.40
2014,08,10,00,27,18.40
2014,08,10,00,28,18.30
2014,08,10,00,29,18.30
2014,08,10,00,30,18.30
2014,08,10,00,31,18.20
2014,08,10,00,32,18.20
2014,08,10,00,33,18.20
2014,08,10,00,34,18.10
2014,08,10,00,35,18.10
2014,08,10,00,36,18.10
2014,08,10,00,37,18.10
2014,08,10,00,38,18.10
2014,08,10,00,39,18.00
2014,08,10,00,40,18.00
2014,08,10,00,41,18.00
2014,08,10,00,42,18.00
2014,08,10,00,43,17.90
2014,08,10,00,44,17.90
2014,08,10,00,45,17.90
2014,08,10,00,46,17.90
2014,08,10,00,47,17.90
2014,08,10,00,48,17.80
2014,08,10,00,49,17.80
2014,08,10,00,50,17.80
2014,08,10,00,51,17.80
2014,08,10,00,52,17.80
2014,08,10,00,53,17.80
2014,08,10,00,54,17.70
2014,08,10,00,55,17.70
2014,08,10,00,56,17.70
2014,08,10,00,57,17.70
2014,08,10,00,58,17.60
2014,08,10,00,59,17.60
2014,08,10,01,00,17.60
2014,08,10,01,01,17.50
2014,08,10,01,02,17.50
2014,08,10,01,03,17.50
2014,08,10,01,04,17.50
2014,08,10,01,05,17.60
2014,08,10,01,06,17.60
2014,08,10,01,07,17.60
2014,08,10,01,08,17.60
2014,08,10,01,09,17.70
2014,08,10,01,10,17.70
2014,08,10,01,11,17.70
2014,08,10,01,12,17.70
2014,08,10,01,13,17.60
2014,08,10,01,14,17.60
2014,08,10,01,15,17.60
2014,08,10,01,16,17.60
2014,08,10,01,17,17.60
2014,08,10,01,18,17.50
2014,08,10,01,19,17.50
2014,08,10,01,20,17.50
2014,08,10,01,21,17.40
2014,08,10,01,22,17.40
2014,08,10,01,23,17.40
2014,08,10,01,24,17.40
2014,08,10,01,25,17.30
2014,08,10,01,26,17.30
2014,08,10,01,27,17.30
2014,08,10,01,28,17.30
2014,08,10,01,29,17.30
2014,08,10,01,30,17.20
2014,08,10,01,31,17.20
2014,08,10,01,32,17.20
2014,08,10,01,33,17.20
2014,08,10,01,34,17.20
2014,08,10,01,35,17.10
2014,08,10,01,36,17.10
2014,08,10,01,37,17.10
2014,08,10,01,38,17.10
2014,08,10,01,39,17.00
2014,08,10,01,40,16.90
2014,08,10,01,41,16.90
2014,08,10,01,42,16.90
2014,08,10,01,43,16.90
2014,08,10,01,44,16.90
2014,08,10,01,45,16.90
2014,08,10,01,46,17.00
2014,08,10,01,47,17.10
2014,08,10,01,48,17.10
2014,08,10,01,49,17.10
2014,08,10,01,50,17.10
2014,08,10,01,51,17.10
2014,08,10,01,52,17.10
2014,08,10,01,53,17.10
2014,08,10,01,54,17.10
2014,08,10,01,55,17.10
2014,08,10,01,56,17.10
2014,08,10,01,57,17.10
2014,08,10,01,58,17.10
2014,08,10,01,59,17.10
2014,08,10,02,00,17.20
2014,08,10,02,01,17.20
2014,08,10,02,02,17.20
2014,08,10,02,03,17.20
2014,08,10,02,04,17.10
2014,08,10,02,05,17.10
2014,08,10,02,06,17.10
2014,08,10,02,07,17.10
2014,08,10,02,08,17.10
2014,08,10,02,09,17.10
2014,08,10,02,10,17.10
2014,08,10,02,11,17.10
2014,08,10,02,12,17.10
2014,08,10,02,13,17.10
2014,08,10,02,14,17.10
2014,08,10,02,15,17.20
2014,08,10,02,16,17.30
2014,08,10,02,17,17.30
2014,08,10,02,18,17.30
2014,08,10,02,19,17.30
2014,08,10,02,20,17.30
2014,08,10,02,21,17.30
2014,08,10,02,22,17.30
2014,08,10,02,23,17.30
2014,08,10,02,24,17.30
2014,08,10,02,25,17.30
2014,08,10,02,26,17.30
2014,08,10,02,27,17.30
2014,08,10,02,28,17.20
2014,08,10,02,29,17.20
2014,08,10,02,30,17.20
2014,08,10,02,31,17.20
2014,08,10,02,32,17.30
2014,08,10,02,33,17.40
2014,08,10,02,34,17.40
2014,08,10,02,35,17.50
2014,08,10,02,36,17.60
2014,08,10,02,37,17.60
2014,08,10,02,38,17.60
2014,08,10,02,39,17.60
2014,08,10,02,40,17.70
2014,08,10,02,41,17.70
2014,08,10,02,42,17.80
2014,08,10,02,43,17.70
2014,08,10,02,44,17.70
2014,08,10,02,45,17.70
2014,08,10,02,46,17.60
2014,08,10,02,47,17.60
2014,08,10,02,48,17.60
2014,08,10,02,49,17.50
2014,08,10,02,50,17.40
2014,08,10,02,51,17.40
2014,08,10,02,52,17.30
2014,08,10,02,53,17.30
2014,08,10,02,54,17.30
2014,08,10,02,55,17.20
2014,08,10,02,56,17.20
2014,08,10,02,57,17.10
2014,08,10,02,58,17.00
2014,08,10,02,59,17.00
2014,08,10,03,00,16.90
2014,08,10,03,01,16.90
2014,08,10,03,02,16.80
2014,08,10,03,03,16.80
2014,08,10,03,04,16.70
2014,08,10,03,05,16.70
2014,08,10,03,06,16.70
2014,08,10,03,07,16.60
2014,08,10,03,08,16.60
2014,08,10,03,09,16.50
2014,08,10,03,10,16.40
2014,08,10,03,11,16.40
2014,08,10,03,12,16.30
2014,08,10,03,13,16.30
2014,08,10,03,14,16.30
2014,08,10,03,15,16.20
2014,08,10,03,16,16.20
2014,08,10,03,17,16.20
2014,08,10,03,18,16.10
2014,08,10,03,19,16.10
2014,08,10,03,20,16.10
2014,08,10,03,21,16.10
2014,08,10,03,22,16.10
2014,08,10,03,23,16.10
2014,08,10,03,24,16.10
2014,08,10,03,25,16.00
2014,08,10,03,26,16.00
2014,08,10,03,27,15.90
2014,08,10,03,28,15.90
2014,08,10,03,29,15.90
2014,08,10,03,30,15.80
2014,08,10,03,31,15.80
2014,08,10,03,32,15.80
2014,08,10,03,33,15.80
2014,08,10,03,34,15.70
2014,08,10,03,35,15.70
2014,08,10,03,36,15.70
2014,08,10,03,37,15.70
2014,08,10,03,38,15.60
2014,08,10,03,39,15.60
2014,08,10,03,40,15.60
2014,08,10,03,41,15.60
2014,08,10,03,42,15.60
2014,08,10,03,43,15.60
2014,08,10,03,44,15.60
2014,08,10,03,45,15.60
2014,08,10,03,46,15.60
2014,08,10,03,47,15.60
2014,08,10,03,48,15.60
2014,08,10,03,49,15.60
2014,08,10,03,50,15.60
2014,08,10,03,51,15.60
2014,08,10,03,52,15.70
2014,08,10,03,53,15.70
2014,08,10,03,54,15.70
2014,08,10,03,55,15.70
2014,08,10,03,56,15.70
2014,08,10,03,57,15.70
2014,08,10,03,58,15.70
2014,08,10,03,59,15.60
2014,08,10,04,00,15.60
2014,08,10,04,01,15.70
2014,08,10,04,02,15.60
2014,08,10,04,03,15.60
2014,08,10,04,04,15.60
2014,08,10,04,05,15.60
2014,08,10,04,06,15.60
2014,08,10,04,07,15.60
2014,08,10,04,08,15.60
2014,08,10,04,09,15.60
2014,08,10,04,10,15.60
2014,08,10,04,11,15.60
2014,08,10,04,12,15.60
2014,08,10,04,13,15.60
2014,08,10,04,14,15.70
2014,08,10,04,15,15.70
2014,08,10,04,16,15.70
2014,08,10,04,17,15.70
2014,08,10,04,18,15.70
2014,08,10,04,19,15.70
2014,08,10,04,20,15.70
2014,08,10,04,21,15.70
2014,08,10,04,22,15.60
2014,08,10,04,23,15.60
2014,08,10,04,24,15.60
2014,08,10,04,25,15.60
2014,08,10,04,26,15.50
2014,08,10,04,27,15.50
2014,08,10,04,28,15.50
2014,08,10,04,29,15.60
2014,08,10,04,30,15.60
2014,08,10,04,31,15.60
2014,08,10,04,32,15.70
2014,08,10,04,33,15.60
2014,08,10,04,34,15.60
2014,08,10,04,35,15.60
2014,08,10,04,36,15.70
2014,08,10,04,37,15.70
2014,08,10,04,38,15.80
2014,08,10,04,39,15.80
2014,08,10,04,40,15.80
2014,08,10,04,41,15.80
2014,08,10,04,42,15.80
2014,08,10,04,43,15.80
2014,08,10,04,44,15.80
2014,08,10,04,45,15.80
2014,08,10,04,46,15.80
2014,08,10,04,47,15.80
2014,08,10,04,48,15.70
2014,08,10,04,49,15.70
2014,08,10,04,50,15.60
2014,08,10,04,51,15.60
2014,08,10,04,52,15.60
2014,08,10,04,53,15.60
2014,08,10,04,54,15.50
2014,08,10,04,55,15.50
2014,08,10,04,56,15.40
2014,08,10,04,57,15.40
2014,08,10,04,58,15.40
2014,08,10,04,59,15.30
2014,08,10,05,00,15.30
2014,08,10,05,01,15.30
2014,08,10,05,02,15.30
2014,08,10,05,03,15.30
2014,08,10,05,04,15.20
2014,08,10,05,05,15.20
2014,08,10,05,06,15.20
2014,08,10,05,07,15.20
2014,08,10,05,08,15.20
2014,08,10,05,09,15.10
2014,08,10,05,10,15.10
2014,08,10,05,11,15.10
2014,08,10,05,12,15.10
2014,08,10,05,13,15.00
2014,08,10,05,14,15.00
2014,08,10,05,15,15.00
2014,08,10,05,16,14.90
2014,08,10,05,17,14.90
2014,08,10,05,18,14.80
2014,08,10,05,19,14.80
2014,08,10,05,20,14.80
2014,08,10,05,21,14.80
2014,08,10,05,22,14.80
2014,08,10,05,23,14.80
2014,08,10,05,24,14.70
2014,08,10,05,25,14.70
2014,08,10,05,26,14.70
2014,08,10,05,27,14.70
2014,08,10,05,28,14.70
2014,08,10,05,29,14.70
2014,08,10,05,30,14.70
2014,08,10,05,31,14.60
2014,08,10,05,32,14.70
2014,08,10,05,33,14.70
2014,08,10,05,34,14.70
2014,08,10,05,35,14.70
2014,08,10,05,36,14.80
2014,08,10,05,37,14.80
2014,08,10,05,38,14.80
2014,08,10,05,39,14.80
2014,08,10,05,40,14.90
2014,08,10,05,41,14.90
2014,08,10,05,42,14.90
2014,08,10,05,43,14.90
2014,08,10,05,44,14.90
2014,08,10,05,45,14.80
2014,08,10,05,46,14.80
2014,08,10,05,47,14.80
2014,08,10,05,48,14.80
2014,08,10,05,49,14.80
2014,08,10,05,50,14.70
2014,08,10,05,51,14.70
2014,08,10,05,52,14.70
2014,08,10,05,53,14.70
2014,08,10,05,54,14.70
2014,08,10,05,55,14.70
2014,08,10,05,56,14.70
2014,08,10,05,57,14.60
2014,08,10,05,58,14.60
2014,08,10,05,59,14.60
2014,08,10,06,00,14.60
2014,08,10,06,01,14.60
2014,08,10,06,02,14.60
2014,08,10,06,03,14.60
2014,08,10,06,04,14.60
2014,08,10,06,05,14.60
2014,08,10,06,06,14.60
2014,08,10,06,07,14.60
2014,08,10,06,08,14.60
2014,08,10,06,09,14.50
2014,08,10,06,10,14.50
2014,08,10,06,11,14.50
2014,08,10,06,12,14.60
2014,08,10,06,13,14.60
2014,08,10,06,14,14.60
2014,08,10,06,15,14.60
2014,08,10,06,16,14.60
2014,08,10,06,17,14.60
2014,08,10,06,18,14.50
2014,08,10,06,19,14.50
2014,08,10,06,20,14.50
2014,08,10,06,21,14.50
2014,08,10,06,22,14.50
2014,08,10,06,23,14.50
2014,08,10,06,24,14.50
2014,08,10,06,25,14.40
2014,08,10,06,26,14.40
2014,08,10,06,27,14.40
2014,08,10,06,28,14.40
2014,08,10,06,29,14.40
2014,08,10,06,30,14.40
2014,08,10,06,31,14.30
2014,08,10,06,32,14.30
2014,08,10,06,33,14.30
2014,08,10,06,34,14.30
2014,08,10,06,35,14.30
2014,08,10,06,36,14.30
2014,08,10,06,37,14.30
2014,08,10,06,38,14.30
2014,08,10,06,39,14.30
2014,08,10,06,40,14.30
2014,08,10,06,41,14.40
2014,08,10,06,42,14.40
2014,08,10,06,43,14.50
2014,08,10,06,44,14.60
2014,08,10,06,45,14.60
2014,08,10,06,46,14.70
2014,08,10,06,47,14.70
2014,08,10,06,48,14.70
2014,08,10,06,49,14.80
2014,08,10,06,50,14.70
2014,08,10,06,51,14.70
2014,08,10,06,52,14.80
2014,08,10,06,53,14.80
2014,08,10,06,54,14.70
2014,08,10,06,55,14.70
2014,08,10,06,56,14.80
2014,08,10,06,57,14.80
2014,08,10,06,58,14.70
2014,08,10,06,59,14.70
2014,08,10,07,00,14.70
2014,08,10,07,01,14.70
2014,08,10,07,02,14.70
2014,08,10,07,03,14.70
2014,08,10,07,04,14.70
2014,08,10,07,05,14.70
2014,08,10,07,06,14.80
2014,08,10,07,07,14.80
2014,08,10,07,08,14.80
2014,08,10,07,09,14.80
2014,08,10,07,10,14.80
2014,08,10,07,11,14.80
2014,08,10,07,12,14.80
2014,08,10,07,13,14.90
2014,08,10,07,14,14.90
2014,08,10,07,15,14.90
2014,08,10,07,16,14.90
2014,08,10,07,17,14.90
2014,08,10,07,18,14.90
2014,08,10,07,19,15.00
2014,08,10,07,20,15.00
2014,08,10,07,21,15.00
2014,08,10,07,22,15.00
2014,08,10,07,23,15.00
2014,08,10,07,24,15.10
2014,08,10,07,25,15.10
2014,08,10,07,26,15.10
2014,08,10,07,27,15.10
2014,08,10,07,28,15.10
2014,08,10,07,29,15.10
2014,08,10,07,30,15.20
2014,08,10,07,31,15.20
2014,08,10,07,32,15.20
2014,08,10,07,33,15.30
2014,08,10,07,34,15.30
2014,08,10,07,35,15.40
2014,08,10,07,36,15.40
2014,08,10,07,37,15.40
2014,08,10,07,38,15.50
2014,08,10,07,39,15.50
2014,08,10,07,40,15.60
2014,08,10,07,41,15.60
2014,08,10,07,42,15.60
2014,08,10,07,43,15.70
2014,08,10,07,44,15.70
2014,08,10,07,45,15.70
2014,08,10,07,46,15.70
2014,08,10,07,47,15.70
2014,08,10,07,48,15.80
2014,08,10,07,49,15.80
2014,08,10,07,50,15.80
2014,08,10,07,51,15.90
2014,08,10,07,52,15.90
2014,08,10,07,53,15.90
2014,08,10,07,54,16.00
2014,08,10,07,55,16.00
2014,08,10,07,56,16.10
2014,08,10,07,57,16.20
2014,08,10,07,58,16.30
2014,08,10,07,59,16.40
2014,08,10,08,00,16.40
2014,08,10,08,01,16.50
2014,08,10,08,02,16.60
2014,08,10,08,03,16.60
2014,08,10,08,04,16.70
2014,08,10,08,05,16.70
2014,08,10,08,06,16.80
2014,08,10,08,07,16.90
2014,08,10,08,08,16.90
2014,08,10,08,09,17.00
2014,08,10,08,10,17.10
2014,08,10,08,11,17.20
2014,08,10,08,12,17.30
2014,08,10,08,13,17.40
2014,08,10,08,14,17.50
2014,08,10,08,15,17.50
2014,08,10,08,16,17.60
2014,08,10,08,17,17.70
2014,08,10,08,18,17.70
2014,08,10,08,19,17.80
2014,08,10,08,20,17.90
2014,08,10,08,21,18.00
2014,08,10,08,22,18.10
2014,08,10,08,23,18.10
2014,08,10,08,24,18.20
2014,08,10,08,25,18.20
2014,08,10,08,26,18.30
2014,08,10,08,27,18.30
2014,08,10,08,28,18.40
2014,08,10,08,29,18.50
2014,08,10,08,30,18.50
2014,08,10,08,31,18.60
2014,08,10,08,32,18.60
2014,08,10,08,33,18.70
2014,08,10,08,34,18.80
2014,08,10,08,35,18.90
2014,08,10,08,36,19.00
2014,08,10,08,37,19.00
2014,08,10,08,38,19.10
2014,08,10,08,39,19.20
2014,08,10,08,40,19.30
2014,08,10,08,41,19.30
2014,08,10,08,42,19.40
2014,08,10,08,43,19.50
2014,08,10,08,44,19.50
2014,08,10,08,45,19.60
2014,08,10,08,46,19.70
2014,08,10,08,47,19.70
2014,08,10,08,48,19.80
2014,08,10,08,49,19.80
2014,08,10,08,50,19.80
2014,08,10,08,51,19.90
2014,08,10,08,52,19.90
2014,08,10,08,53,20.00
2014,08,10,08,54,20.00
2014,08,10,08,55,20.00
2014,08,10,08,56,20.10
2014,08,10,08,57,20.20
2014,08,10,08,58,20.20
2014,08,10,08,59,20.20
2014,08,10,09,00,20.30
2014,08,10,09,01,20.30
2014,08,10,09,02,20.30
2014,08,10,09,03,20.40
2014,08,10,09,04,20.40
2014,08,10,09,05,20.50
2014,08,10,09,06,20.50
2014,08,10,09,07,20.60
2014,08,10,09,08,20.70
2014,08,10,09,09,20.70
2014,08,10,09,10,20.80
2014,08,10,09,11,20.90
2014,08,10,09,12,21.00
2014,08,10,09,13,21.10
2014,08,10,09,14,21.20
2014,08,10,09,15,21.30
2014,08,10,09,16,21.30
2014,08,10,09,17,21.30
2014,08,10,09,18,21.30
2014,08,10,09,19,21.30
2014,08,10,09,20,21.30
2014,08,10,09,21,21.30
2014,08,10,09,22,21.30
2014,08,10,09,23,21.40
2014,08,10,09,24,21.40
2014,08,10,09,25,21.40
2014,08,10,09,26,21.50
2014,08,10,09,27,21.60
2014,08,10,09,28,21.70
2014,08,10,09,29,21.80
2014,08,10,09,30,21.90
2014,08,10,09,31,22.00
2014,08,10,09,32,22.10
2014,08,10,09,33,22.20
2014,08,10,09,34,22.20
2014,08,10,09,35,22.30
2014,08,10,09,36,22.40
2014,08,10,09,37,22.50
2014,08,10,09,38,22.50
2014,08,10,09,39,22.50
2014,08,10,09,40,22.50
2014,08,10,09,41,22.40
2014,08,10,09,42,22.40
2014,08,10,09,43,22.30
2014,08,10,09,44,22.40
2014,08,10,09,45,22.40
2014,08,10,09,46,22.40
2014,08,10,09,47,22.50
2014,08,10,09,48,22.60
2014,08,10,09,49,22.70
2014,08,10,09,50,22.80
2014,08,10,09,51,22.80
2014,08,10,09,52,22.90
2014,08,10,09,53,23.00
2014,08,10,09,54,23.10
2014,08,10,09,55,23.10
2014,08,10,09,56,23.10
2014,08,10,09,57,23.20
2014,08,10,09,58,23.30
2014,08,10,09,59,23.30
2014,08,10,10,00,23.30
2014,08,10,10,01,23.30
2014,08,10,10,02,23.30
2014,08,10,10,03,23.30
2014,08,10,10,04,23.30
2014,08,10,10,05,23.30
2014,08,10,10,06,23.30
2014,08,10,10,07,23.30
2014,08,10,10,08,23.30
2014,08,10,10,09,23.40
2014,08,10,10,10,23.50
2014,08,10,10,11,23.60
2014,08,10,10,12,23.60
2014,08,10,10,13,23.70
2014,08,10,10,14,23.70
2014,08,10,10,15,23.70
2014,08,10,10,16,23.70
2014,08,10,10,17,23.70
2014,08,10,10,18,23.80
2014,08,10,10,19,23.80
2014,08,10,10,20,23.90
2014,08,10,10,21,23.90
2014,08,10,10,22,23.90
2014,08,10,10,23,23.90
2014,08,10,10,24,24.00
2014,08,10,10,25,23.90
2014,08,10,10,26,23.90
2014,08,10,10,27,23.80
2014,08,10,10,28,23.80
2014,08,10,10,29,23.80
2014,08,10,10,30,23.80
2014,08,10,10,31,23.90
2014,08,10,10,32,24.00
2014,08,10,10,33,24.00
2014,08,10,10,34,24.10
2014,08,10,10,35,24.20
2014,08,10,10,36,24.20
2014,08,10,10,37,24.30
2014,08,10,10,38,24.30
2014,08,10,10,39,24.30
2014,08,10,10,40,24.30
2014,08,10,10,41,24.30
2014,08,10,10,42,24.30
2014,08,10,10,43,24.30
2014,08,10,10,44,24.30
2014,08,10,10,45,24.30
2014,08,10,10,46,24.40
2014,08,10,10,47,24.40
2014,08,10,10,48,24.50
2014,08,10,10,49,24.50
2014,08,10,10,50,24.60
2014,08,10,10,51,24.70
2014,08,10,10,52,24.80
2014,08,10,10,53,24.90
2014,08,10,10,54,25.00
2014,08,10,10,55,25.10
2014,08,10,10,56,25.10
2014,08,10,10,57,25.10
2014,08,10,10,58,25.10
2014,08,10,10,59,25.10
2014,08,10,11,00,25.20
2014,08,10,11,01,25.30
2014,08,10,11,02,25.30
2014,08,10,11,03,25.40
2014,08,10,11,04,25.40
2014,08,10,11,05,25.40
2014,08,10,11,06,25.40
2014,08,10,11,07,25.50
2014,08,10,11,08,25.60
2014,08,10,11,09,25.60
2014,08,10,11,10,25.60
2014,08,10,11,11,25.60
2014,08,10,11,12,25.60
2014,08,10,11,13,25.60
2014,08,10,11,14,25.60
2014,08,10,11,15,25.60
2014,08,10,11,16,25.60
2014,08,10,11,17,25.60
2014,08,10,11,18,25.60
2014,08,10,11,19,25.50
2014,08,10,11,20,25.50
2014,08,10,11,21,25.40
2014,08,10,11,22,25.40
2014,08,10,11,23,25.40
2014,08,10,11,24,25.50
2014,08,10,11,25,25.60
2014,08,10,11,26,25.60
2014,08,10,11,27,25.60
2014,08,10,11,28,25.60
2014,08,10,11,29,25.60
2014,08,10,11,30,25.70
2014,08,10,11,31,25.70
2014,08,10,11,32,25.70
2014,08,10,11,33,25.80
2014,08,10,11,34,25.80
2014,08,10,11,35,25.90
2014,08,10,11,36,26.00
2014,08,10,11,37,26.10
2014,08,10,11,38,26.10
2014,08,10,11,39,26.10
2014,08,10,11,40,26.10
2014,08,10,11,41,26.00
2014,08,10,11,42,26.00
2014,08,10,11,43,26.00
2014,08,10,11,44,26.00
2014,08,10,11,45,26.00
2014,08,10,11,46,26.00
2014,08,10,11,47,25.90
2014,08,10,11,48,25.80
2014,08,10,11,49,25.70
2014,08,10,11,50,25.70
2014,08,10,11,51,25.60
2014,08,10,11,52,25.50
2014,08,10,11,53,25.50
2014,08,10,11,54,25.50
2014,08,10,11,55,25.50
2014,08,10,11,56,25.50
2014,08,10,11,57,25.50
2014,08,10,11,58,25.60
2014,08,10,11,59,25.60
2014,08,10,12,00,25.70
2014,08,10,12,01,25.70
2014,08,10,12,02,25.80
2014,08,10,12,03,25.80
2014,08,10,12,04,25.90
2014,08,10,12,05,26.00
2014,08,10,12,06,26.10
2014,08,10,12,07,26.10
2014,08,10,12,08,26.20
2014,08,10,12,09,26.20
2014,08,10,12,10,26.30
2014,08,10,12,11,26.30
2014,08,10,12,12,26.30
2014,08,10,12,13,26.30
2014,08,10,12,14,26.30
2014,08,10,12,15,26.20
2014,08,10,12,16,26.20
2014,08,10,12,17,26.20
2014,08,10,12,18,26.20
2014,08,10,12,19,26.10
2014,08,10,12,20,26.10
2014,08,10,12,21,26.10
2014,08,10,12,22,26.10
2014,08,10,12,23,26.10
2014,08,10,12,24,26.10
2014,08,10,12,25,26.00
2014,08,10,12,26,26.00
2014,08,10,12,27,26.00
2014,08,10,12,28,25.90
2014,08,10,12,29,25.90
2014,08,10,12,30,26.00
2014,08,10,12,31,26.00
2014,08,10,12,32,26.10
2014,08,10,12,33,26.10
2014,08,10,12,34,26.10
2014,08,10,12,35,26.00
2014,08,10,12,36,26.00
2014,08,10,12,37,25.90
2014,08,10,12,38,25.80
2014,08,10,12,39,25.70
2014,08,10,12,40,25.60
2014,08,10,12,41,25.60
2014,08,10,12,42,25.60
2014,08,10,12,43,25.70
2014,08,10,12,44,25.80
2014,08,10,12,45,26.00
2014,08,10,12,46,26.10
2014,08,10,12,47,26.20
2014,08,10,12,48,26.20
2014,08,10,12,49,26.20
2014,08,10,12,50,26.30
2014,08,10,12,51,26.20
2014,08,10,12,52,26.20
2014,08,10,12,53,26.10
2014,08,10,12,54,26.10
2014,08,10,12,55,26.00
2014,08,10,12,56,25.90
2014,08,10,12,57,25.90
2014,08,10,12,58,25.90
2014,08,10,12,59,25.90
2014,08,10,13,00,25.80
2014,08,10,13,01,25.80
2014,08,10,13,02,25.80
2014,08,10,13,03,25.80
2014,08,10,13,04,25.80
2014,08,10,13,05,25.80
2014,08,10,13,06,25.80
2014,08,10,13,07,25.70
2014,08,10,13,08,25.70
2014,08,10,13,09,25.80
2014,08,10,13,10,25.80
2014,08,10,13,11,25.90
2014,08,10,13,12,25.90
2014,08,10,13,13,26.00
2014,08,10,13,14,26.00
2014,08,10,13,15,26.10
2014,08,10,13,16,26.20
2014,08,10,13,17,26.30
2014,08,10,13,18,26.40
2014,08,10,13,19,26.40
2014,08,10,13,20,26.50
2014,08,10,13,21,26.50
2014,08,10,13,22,26.60
2014,08,10,13,23,26.70
2014,08,10,13,24,26.70
2014,08,10,13,25,26.80
2014,08,10,13,26,26.90
2014,08,10,13,27,27.00
2014,08,10,13,28,27.00
2014,08,10,13,29,27.00
2014,08,10,13,30,27.10
2014,08,10,13,31,27.10
2014,08,10,13,32,27.10
2014,08,10,13,33,27.20
2014,08,10,13,34,27.30
2014,08,10,13,35,27.40
2014,08,10,13,36,27.50
2014,08,10,13,37,27.60
2014,08,10,13,38,27.50
2014,08,10,13,39,27.40
2014,08,10,13,40,27.40
2014,08,10,13,41,27.40
2014,08,10,13,42,27.40
2014,08,10,13,43,27.30
2014,08,10,13,44,27.30
2014,08,10,13,45,27.20
2014,08,10,13,46,27.20
2014,08,10,13,47,27.20
2014,08,10,13,48,27.20
2014,08,10,13,49,27.30
2014,08,10,13,50,27.30
2014,08,10,13,51,27.30
2014,08,10,13,52,27.30
2014,08,10,13,53,27.20
2014,08,10,13,54,27.10
2014,08,10,13,55,27.10
2014,08,10,13,56,27.10
2014,08,10,13,57,27.10
2014,08,10,13,58,27.10
2014,08,10,13,59,27.20
2014,08,10,14,00,27.20
2014,08,10,14,01,27.30
2014,08,10,14,02,27.30
2014,08,10,14,03,27.20
2014,08,10,14,04,27.10
2014,08,10,14,05,27.10
2014,08,10,14,06,27.10
2014,08,10,14,07,27.20
2014,08,10,14,08,27.20
2014,08,10,14,09,27.20
2014,08,10,14,10,27.10
2014,08,10,14,11,27.20
2014,08,10,14,12,27.20
2014,08,10,14,13,27.30
2014,08,10,14,14,27.30
2014,08,10,14,15,27.40
2014,08,10,14,16,27.40
2014,08,10,14,17,27.40
2014,08,10,14,18,27.40
2014,08,10,14,19,27.40
2014,08,10,14,20,27.40
2014,08,10,14,21,27.50
2014,08,10,14,22,27.50
2014,08,10,14,23,27.60
2014,08,10,14,24,27.80
2014,08,10,14,25,27.90
2014,08,10,14,26,28.00
2014,08,10,14,27,28.10
2014,08,10,14,28,28.10
2014,08,10,14,29,28.10
2014,08,10,14,30,28.10
2014,08,10,14,31,28.00
2014,08,10,14,32,28.00
2014,08,10,14,33,28.00
2014,08,10,14,34,28.00
2014,08,10,14,35,28.10
2014,08,10,14,36,28.10
2014,08,10,14,37,28.10
2014,08,10,14,38,28.00
2014,08,10,14,39,28.00
2014,08,10,14,40,27.90
2014,08,10,14,41,27.90
2014,08,10,14,42,27.90
2014,08,10,14,43,27.90
2014,08,10,14,44,27.70
2014,08,10,14,45,27.60
2014,08,10,14,46,27.50
2014,08,10,14,47,27.40
2014,08,10,14,48,27.30
2014,08,10,14,49,27.20
2014,08,10,14,50,27.20
2014,08,10,14,51,27.10
2014,08,10,14,52,27.10
2014,08,10,14,53,27.10
2014,08,10,14,54,27.10
2014,08,10,14,55,27.10
2014,08,10,14,56,27.10
2014,08,10,14,57,27.10
2014,08,10,14,58,27.10
2014,08,10,14,59,27.10
2014,08,10,15,00,27.10
2014,08,10,15,01,27.10
2014,08,10,15,02,27.10
2014,08,10,15,03,27.10
2014,08,10,15,04,27.10
2014,08,10,15,05,27.20
2014,08,10,15,06,27.30
2014,08,10,15,07,27.30
2014,08,10,15,08,27.50
2014,08,10,15,09,27.50
2014,08,10,15,10,27.60
2014,08,10,15,11,27.70
2014,08,10,15,12,27.70
2014,08,10,15,13,27.70
2014,08,10,15,14,27.70
2014,08,10,15,15,27.70
2014,08,10,15,16,27.80
2014,08,10,15,17,27.80
2014,08,10,15,18,27.90
2014,08,10,15,19,28.00
2014,08,10,15,20,28.10
2014,08,10,15,21,28.20
2014,08,10,15,22,28.20
2014,08,10,15,23,28.30
2014,08,10,15,24,28.30
2014,08,10,15,25,28.30
2014,08,10,15,26,28.40
2014,08,10,15,27,28.40
2014,08,10,15,28,28.40
2014,08,10,15,29,28.40
2014,08,10,15,30,28.40
2014,08,10,15,31,28.40
2014,08,10,15,32,28.40
2014,08,10,15,33,28.50
2014,08,10,15,34,28.50
2014,08,10,15,35,28.60
2014,08,10,15,36,28.60
2014,08,10,15,37,28.70
2014,08,10,15,38,28.80
2014,08,10,15,39,28.80
2014,08,10,15,40,28.90
2014,08,10,15,41,28.90
2014,08,10,15,42,29.00
2014,08,10,15,43,29.10
2014,08,10,15,44,29.10
2014,08,10,15,45,29.20
2014,08,10,15,46,29.20
2014,08,10,15,47,29.30
2014,08,10,15,48,29.30
2014,08,10,15,49,29.40
2014,08,10,15,50,29.40
2014,08,10,15,51,29.50
2014,08,10,15,52,29.40
2014,08,10,15,53,29.40
2014,08,10,15,54,29.40
2014,08,10,15,55,29.40
2014,08,10,15,56,29.30
2014,08,10,15,57,29.30
2014,08,10,15,58,29.30
2014,08,10,15,59,29.30
2014,08,10,16,00,29.30
2014,08,10,16,01,29.40
2014,08,10,16,02,29.40
2014,08,10,16,03,29.50
2014,08,10,16,04,29.50
2014,08,10,16,05,29.60
2014,08,10,16,06,29.60
2014,08,10,16,07,29.70
2014,08,10,16,08,29.70
2014,08,10,16,09,29.70
2014,08,10,16,10,29.70
2014,08,10,16,11,29.70
2014,08,10,16,12,29.80
2014,08,10,16,13,29.80
2014,08,10,16,14,29.80
2014,08,10,16,15,29.80
2014,08,10,16,16,29.80
2014,08,10,16,17,29.70
2014,08,10,16,18,29.70
2014,08,10,16,19,29.70
2014,08,10,16,20,29.60
2014,08,10,16,21,29.60
2014,08,10,16,22,29.60
2014,08,10,16,23,29.60
2014,08,10,16,24,29.60
2014,08,10,16,25,29.60
2014,08,10,16,26,29.70
2014,08,10,16,27,29.70
2014,08,10,16,28,29.80
2014,08,10,16,29,29.80
2014,08,10,16,30,29.90
2014,08,10,16,31,29.90
2014,08,10,16,32,30.00
2014,08,10,16,33,30.00
2014,08,10,16,34,30.00
2014,08,10,16,35,29.90
2014,08,10,16,36,29.90
2014,08,10,16,37,29.90
2014,08,10,16,38,29.90
2014,08,10,16,39,30.00
2014,08,10,16,40,30.00
2014,08,10,16,41,30.10
2014,08,10,16,42,30.10
2014,08,10,16,43,30.10
2014,08,10,16,44,30.20
2014,08,10,16,45,30.20
2014,08,10,16,46,30.30
2014,08,10,16,47,30.30
2014,08,10,16,48,30.40
2014,08,10,16,49,30.40
2014,08,10,16,50,30.50
2014,08,10,16,51,30.50
2014,08,10,16,52,30.50
2014,08,10,16,53,30.50
2014,08,10,16,54,30.50
2014,08,10,16,55,30.50
2014,08,10,16,56,30.50
2014,08,10,16,57,30.50
2014,08,10,16,58,30.40
2014,08,10,16,59,30.40
2014,08,10,17,00,30.40
2014,08,10,17,01,30.30
2014,08,10,17,02,30.30
2014,08,10,17,03,30.30
2014,08,10,17,04,30.30
2014,08,10,17,05,30.30
2014,08,10,17,06,30.30
2014,08,10,17,07,30.20
2014,08,10,17,08,30.20
2014,08,10,17,09,30.20
2014,08,10,17,10,30.20
2014,08,10,17,11,30.20
2014,08,10,17,12,30.20
2014,08,10,17,13,30.20
2014,08,10,17,14,30.20
2014,08,10,17,15,30.20
2014,08,10,17,16,30.20
2014,08,10,17,17,30.20
2014,08,10,17,18,30.30
2014,08,10,17,19,30.30